GW0478 Weather Reports


time (UTC)temp
F
wind
direction
speed
knots
gust
knots
rain 1hr
in
rain 24hr
in
rain mn
in
humidity
%
barometer
mb
20260510203351 44 145 7.8 8.7 0.00 0.00 0.00 77 1014.4
20260510202851 44 136 4.3 9.6 0.00 0.00 0.00 76 1014.0
20260510202347 44 151 3.5 7.0 0.00 0.00 0.00 77 1014.0
20260510201843 44 204 3.5 7.0 0.00 0.00 0.00 77 1014.3
20260510201341 44 132 4.3 8.7 0.00 0.00 0.00 78 1014.1
20260510200837 44 113 4.3 8.7 0.00 0.00 0.00 79 1014.0
20260510200336 44 68 2.6 6.1 0.00 0.00 0.00 78 1014.0
20260510195831 44 107 2.6 7.8 0.00 0.00 0.00 79 1013.7
20260510195327 45 170 2.6 7.8 0.00 0.00 0.00 77 1013.7
20260510194823 47 116 2.6 5.2 0.00 0.00 0.00 72 1013.8
20260510194320 48 261 1.7 6.1 0.00 0.00 0.00 68 1013.4
20260510193815 51 286 6.1 7.0 0.00 0.00 0.00 52 1013.3
20260510193310 51 304 6.1 8.7 0.00 0.00 0.00 50 1013.3
20260510192806 52 313 5.2 8.7 0.00 0.00 0.00 51 1013.2
20260510192306 52 310 3.5 7.0 0.00 0.00 0.00 52 1013.0
20260510191758 52 275 7.8 9.6 0.00 0.00 0.00 50 1013.0
20260510191254 52 269 9.6 12.2 0.00 0.00 0.00 51 1012.9
20260510190752 52 306 11.3 13.0 0.00 0.00 0.00 50 1012.8
20260510190248 52 270 9.6 12.2 0.00 0.00 0.00 50 1012.8
20260510185745 52 329 6.1 8.7 0.00 0.00 0.00 53 1012.9
20260510185243 52 14 5.2 7.0 0.00 0.00 0.00 52 1012.8
20260510184739 51 285 6.1 8.7 0.00 0.00 0.00 55 1012.8
20260510184237 50 308 13.0 17.4 0.00 0.00 0.00 54 1012.7
20260510183731 51 249 7.8 17.4 0.00 0.00 0.00 52 1012.6
20260510183226 51 324 6.1 11.3 0.00 0.00 0.00 52 1012.4
20260510182723 51 310 7.8 11.3 0.00 0.00 0.00 51 1012.1
20260510182219 51 276 4.3 8.7 0.00 0.00 0.00 50 1012.2
20260510181716 51 333 7.8 12.2 0.00 0.00 0.00 48 1012.2
20260510181213 52 288 5.2 9.6 0.00 0.00 0.00 49 1012.0
20260510180709 53 313 7.0 7.8 0.00 0.00 0.00 48 1011.9
20260510180207 53 323 2.6 8.7 0.00 0.00 0.00 50 1011.9
20260510175702 52 294 9.6 13.9 0.00 0.00 0.00 49 1011.9
20260510175158 52 302 5.2 8.7 0.00 0.00 0.00 47 1011.8
20260510174655 52 289 6.1 12.2 0.00 0.00 0.00 49 1011.8
20260510174153 51 338 8.7 15.6 0.00 0.00 0.00 48 1011.9
20260510173649 51 325 8.7 11.3 0.00 0.00 0.00 49 1011.7
20260510173145 51 321 3.5 7.8 0.00 0.00 0.00 51 1011.9
20260510172640 52 315 6.1 8.7 0.00 0.00 0.00 49 1011.9
20260510172137 52 308 7.8 13.0 0.00 0.00 0.00 49 1011.9
20260510171634 51 333 7.8 11.3 0.00 0.00 0.00 48 1011.9
20260510171132 51 326 7.0 8.7 0.00 0.00 0.00 48 1012.0
20260510170628 52 289 9.6 12.2 0.00 0.00 0.00 47 1011.9
20260510170124 52 347 9.6 13.0 0.00 0.00 0.00 47 1011.6
20260510165620 52 318 7.8 12.2 0.00 0.00 0.00 48 1011.9
20260510165116 51 330 7.8 9.6 0.00 0.00 0.00 49 1012.1
20260510164614 51 310 5.2 9.6 0.00 0.00 0.00 49 1012.0
20260510164110 50 297 8.7 14.8 0.00 0.00 0.00 51 1012.0
20260510163605 51 335 5.2 11.3 0.00 0.00 0.00 49 1012.1
20260510163102 50 237 4.3 8.7 0.00 0.00 0.00 54 1012.0
20260510162556 50 331 9.6 12.2 0.00 0.00 0.00 51 1012.1
20260510162053 50 320 5.2 9.6 0.00 0.00 0.00 50 1012.2
20260510161549 51 315 8.7 13.9 0.00 0.00 0.00 51 1012.3
20260510161046 52 276 7.8 11.3 0.00 0.00 0.00 50 1011.9
20260510160543 51 248 4.3 7.0 0.00 0.00 0.00 55 1012.2
20260510160042 50 281 6.1 9.6 0.00 0.00 0.00 54 1012.1
20260510155539 49 321 7.8 9.6 0.00 0.00 0.00 54 1012.1
20260510155036 49 315 6.1 9.6 0.00 0.00 0.00 52 1011.8
20260510154531 49 280 5.2 9.6 0.00 0.00 0.00 55 1012.1
20260510154026 50 341 2.6 7.0 0.00 0.00 0.00 53 1012.1
20260510153521 49 268 4.3 7.8 0.00 0.00 0.00 55 1011.8
20260510153019 49 298 4.3 7.8 0.00 0.00 0.00 56 1011.8
20260510152516 49 320 7.0 15.6 0.00 0.00 0.00 55 1011.9
20260510152012 48 261 6.1 7.8 0.00 0.00 0.00 53 1011.8
20260510151509 49 329 7.0 13.0 0.00 0.00 0.00 55 1012.0
20260510151007 48 265 6.1 8.7 0.00 0.00 0.00 56 1011.8
20260510150501 48 297 7.8 13.0 0.00 0.00 0.00 55 1011.9
20260510145957 48 358 8.7 12.2 0.00 0.00 0.00 56 1011.6
20260510145454 48 324 8.7 15.6 0.00 0.00 0.00 55 1011.6
20260510144950 48 323 9.6 11.3 0.00 0.00 0.00 56 1011.8
20260510144448 47 298 7.0 9.6 0.00 0.00 0.00 57 1011.7
20260510143943 47 286 6.1 9.6 0.00 0.00 0.00 58 1011.5
20260510143439 47 273 7.8 12.2 0.00 0.00 0.00 58 1011.7
20260510142936 47 347 14.8 21.7 0.00 0.00 0.00 58 1011.4
20260510142433 46 329 7.0 13.0 0.00 0.00 0.00 59 1011.7
20260510141929 47 292 7.8 9.6 0.00 0.00 0.00 58 1011.7
20260510141426 46 305 6.1 7.8 0.00 0.00 0.00 61 1011.6
20260510140923 46 313 6.1 11.3 0.00 0.00 0.00 58 1011.5
20260510140414 46 303 5.2 8.7 0.00 0.00 0.00 61 1011.6
20260510135913 46 321 7.0 13.0 0.00 0.00 0.00 60 1011.6
20260510135410 46 236 6.1 11.3 0.00 0.00 0.00 60 1011.4
20260510134907 46 359 7.8 9.6 0.00 0.00 0.00 61 1011.4
20260510134403 46 322 6.1 7.8 0.00 0.00 0.00 62 1011.4
20260510133859 45 347 6.1 8.7 0.00 0.00 0.00 61 1011.2
20260510133356 45 341 2.6 12.2 0.00 0.00 0.00 62 1011.4
20260510132851 44 301 8.7 11.3 0.00 0.00 0.00 62 1011.3
20260510132349 45 0 8.7 11.3 0.00 0.00 0.00 62 1011.4
20260510131846 44 339 5.2 12.2 0.00 0.00 0.00 64 1011.3
20260510131344 44 325 7.8 11.3 0.00 0.00 0.00 63 1011.2
20260510130840 44 313 7.8 9.6 0.00 0.00 0.00 65 1011.3
20260510130337 44 341 8.7 12.2 0.00 0.00 0.00 63 1011.1
20260510125834 44 2 10.4 13.0 0.00 0.00 0.00 64 1011.0
20260510125330 43 10 7.8 11.3 0.00 0.00 0.00 67 1011.0
20260510124827 44 317 7.0 9.6 0.00 0.00 0.00 69 1010.9
20260510124324 43 336 8.7 9.6 0.00 0.00 0.00 70 1010.9
20260510123819 43 288 7.0 11.3 0.00 0.00 0.00 70 1011.1
20260510123315 43 299 11.3 13.9 0.00 0.00 0.00 71 1011.0
20260510122812 42 299 3.5 7.8 0.00 0.00 0.00 75 1011.0
20260510122308 42 289 6.1 9.6 0.00 0.00 0.00 76 1010.9
20260510121804 42 317 3.5 11.3 0.00 0.00 0.00 77 1010.6
20260510121302 41 306 6.1 9.6 0.00 0.00 0.00 76 1010.5
20260510120759 41 276 6.1 8.7 0.00 0.00 0.00 77 1010.5
20260510120255 41 263 7.0 12.2 0.00 0.00 0.00 77 1010.5
20260510115751 41 266 4.3 9.6 0.00 0.00 0.00 79 1010.3
20260510115250 41 288 5.2 9.6 0.00 0.00 0.00 80 1010.3
20260510114750 41 274 4.3 7.8 0.00 0.00 0.00 79 1010.2
20260510114248 40 295 4.3 7.0 0.00 0.00 0.00 80 1010.0
20260510113742 40 269 5.2 7.8 0.00 0.00 0.00 79 1010.1
20260510113240 40 297 4.3 7.8 0.00 0.00 0.00 81 1010.0
20260510112736 39 285 4.3 6.1 0.00 0.00 0.00 80 1010.0
20260510112233 39 302 4.3 7.8 0.00 0.00 0.00 81 1009.9
20260510111728 39 278 2.6 4.3 0.00 0.00 0.00 81 1009.9
20260510111226 38 256 4.3 5.2 0.00 0.00 0.00 82 1009.8
20260510110725 38 274 4.3 7.0 0.00 0.00 0.00 82 1009.9
20260510110224 37 269 4.3 5.2 0.00 0.00 0.00 83 1009.7
20260510105723 37 291 4.3 5.2 0.00 0.00 0.00 82 1009.5
20260510105218 37 284 3.5 7.0 0.00 0.00 0.00 82 1009.3
20260510104715 37 248 4.3 5.2 0.00 0.00 0.00 83 1009.2
20260510104212 37 290 4.3 6.1 0.00 0.00 0.00 83 1009.2
20260510103708 37 284 3.5 5.2 0.00 0.00 0.00 83 1009.1
20260510103206 37 285 5.2 7.0 0.00 0.00 0.00 82 1009.0
20260510102700 37 270 2.6 5.2 0.00 0.00 0.00 84 1008.8
20260510102156 37 293 3.5 6.1 0.00 0.00 0.00 82 1008.7
20260510101654 37 277 3.5 5.2 0.00 0.00 0.00 83 1008.7
20260510101152 37 280 3.5 5.2 0.00 0.00 0.00 82 1008.8
20260510100653 37 298 3.5 4.3 0.00 0.00 0.00 83 1008.7
20260510100151 37 271 4.3 5.2 0.00 0.00 0.00 81 1008.6
20260510095646 37 282 4.3 6.1 0.00 0.00 0.00 82 1008.7
20260510095141 37 272 2.6 6.1 0.00 0.00 0.00 83 1008.6
20260510094640 37 249 4.3 5.2 0.00 0.00 0.00 82 1008.5
20260510094136 37 285 3.5 6.1 0.00 0.00 0.00 82 1008.4
20260510093632 37 253 3.5 5.2 0.00 0.00 0.00 82 1008.5
20260510093130 37 256 3.5 7.0 0.00 0.00 0.00 82 1008.3
20260510092626 36 251 4.3 5.2 0.00 0.00 0.00 83 1008.3
20260510092121 36 258 4.3 6.1 0.00 0.00 0.00 83 1008.4
20260510091617 36 238 3.5 5.2 0.00 0.00 0.00 82 1008.1
20260510091114 36 262 3.5 4.3 0.00 0.00 0.00 82 1008.2
20260510090611 37 256 2.6 4.3 0.00 0.00 0.00 82 1008.1
20260510090107 37 291 2.6 2.6 0.00 0.00 0.00 82 1008.1
20260510085602 37 266 1.7 2.6 0.00 0.00 0.00 81 1008.0
20260510085058 37 274 3.5 5.2 0.00 0.00 0.00 82 1007.8
20260510084554 37 256 3.5 5.2 0.00 0.00 0.00 82 1007.8
20260510084051 37 260 3.5 5.2 0.00 0.00 0.00 82 1007.8
20260510083548 37 280 1.7 2.6 0.00 0.00 0.00 83 1007.7
20260510083044 37 274 2.6 2.6 0.00 0.00 0.00 82 1007.7
20260510082541 37 267 1.7 4.3 0.00 0.00 0.00 82 1007.7
20260510082036 37 276 2.6 2.6 0.00 0.00 0.00 81 1007.5
20260510081532 37 271 2.6 2.6 0.00 0.00 0.00 80 1007.7
20260510081027 37 279 2.6 5.2 0.00 0.00 0.00 79 1007.6
20260510080526 37 292 2.6 4.3 0.00 0.00 0.00 79 1007.3
20260510080024 37 284 2.6 4.3 0.00 0.00 0.00 80 1007.3
20260510075521 37 274 2.6 6.1 0.00 0.00 0.00 79 1007.4
20260510075018 37 268 2.6 4.3 0.00 0.00 0.00 80 1007.2
20260510074516 37 278 2.6 2.6 0.00 0.00 0.00 80 1007.4
20260510074011 37 291 2.6 4.3 0.00 0.00 0.00 80 1007.0
20260510073507 38 277 3.5 5.2 0.00 0.00 0.00 79 1007.1
20260510073004 38 266 3.5 5.2 0.00 0.00 0.00 78 1007.0
20260510072500 38 272 2.6 4.3 0.00 0.00 0.00 79 1007.0
20260510071956 38 294 3.5 5.2 0.00 0.00 0.00 78 1006.9
20260510071452 38 294 3.5 5.2 0.00 0.00 0.00 78 1006.9
20260510070950 38 269 2.6 5.2 0.00 0.00 0.00 80 1006.7
20260510070448 38 275 2.6 2.6 0.00 0.00 0.00 79 1006.8
20260510065943 38 277 2.6 2.6 0.00 0.00 0.00 79 1006.5
20260510065440 38 284 2.6 2.6 0.00 0.00 0.00 78 1006.4
20260510064936 38 302 2.6 2.6 0.00 0.00 0.00 78 1006.7
20260510064434 38 278 2.6 5.2 0.00 0.00 0.00 77 1006.6
20260510063930 38 282 3.5 4.3 0.00 0.00 0.00 76 1006.8
20260510063426 38 275 2.6 4.3 0.00 0.00 0.00 76 1006.7
20260510062924 39 278 2.6 4.3 0.00 0.00 0.00 76 1006.7
20260510062419 39 284 2.6 5.2 0.00 0.00 0.00 75 1006.7
20260510061915 39 277 3.5 4.3 0.00 0.00 0.00 75 1006.7
20260510061412 39 286 2.6 4.3 0.00 0.00 0.00 77 1006.7
20260510060908 39 283 2.6 5.2 0.00 0.00 0.00 78 1006.8
20260510060405 39 259 2.6 4.3 0.00 0.00 0.00 78 1006.7
20260510055901 39 262 3.5 5.2 0.00 0.00 0.00 77 1006.4
20260510055356 39 288 2.6 4.3 0.00 0.00 0.00 76 1006.4
20260510054854 40 274 1.7 2.6 0.00 0.00 0.00 76 1006.5
20260510054350 40 275 2.6 5.2 0.00 0.00 0.00 75 1006.4
20260510053845 40 294 2.6 5.2 0.00 0.00 0.00 75 1006.3
20260510053341 41 280 1.7 2.6 0.00 0.00 0.00 74 1006.1
20260510052838 41 280 2.6 2.6 0.00 0.00 0.00 72 1006.3
20260510052333 41 305 2.6 5.2 0.00 0.00 0.00 73 1006.0
20260510051830 41 304 1.7 4.3 0.00 0.00 0.00 71 1005.8
20260510051327 41 315 2.6 5.2 0.00 0.00 0.00 71 1005.9
20260510050824 41 339 2.6 4.3 0.00 0.00 0.00 71 1005.9
20260510050320 42 330 2.6 5.2 0.00 0.00 0.00 71 1005.7
20260510045817 42 314 5.2 7.0 0.00 0.00 0.00 69 1005.5
20260510045314 42 314 7.0 7.8 0.00 0.00 0.00 70 1005.7
20260510044811 42 299 4.3 6.1 0.00 0.00 0.00 71 1005.8
20260510044308 42 311 3.5 6.1 0.00 0.00 0.00 71 1005.6
20260510043804 42 305 2.6 5.2 0.00 0.00 0.00 73 1005.4
20260510043300 43 340 4.3 7.0 0.00 0.00 0.00 71 1005.6
20260510042758 43 318 2.6 7.8 0.00 0.00 0.00 72 1005.0
20260510042253 43 287 4.3 9.6 0.00 0.00 0.00 72 1005.2
20260510041750 43 312 3.5 5.2 0.00 0.00 0.00 71 1005.4
20260510041248 43 306 2.6 6.1 0.00 0.00 0.00 72 1004.8
20260510040745 43 316 3.5 6.1 0.00 0.00 0.00 72 1004.8
20260510040242 43 1 4.3 5.2 0.00 0.00 0.00 72 1004.9
20260510035737 43 278 2.6 4.3 0.00 0.00 0.00 72 1005.1
20260510035233 44 283 4.3 6.1 0.00 0.00 0.00 71 1005.0
20260510034729 44 303 6.1 7.0 0.00 0.00 0.00 70 1004.7
20260510034228 44 314 2.6 7.0 0.00 0.00 0.00 71 1004.7
20260510033723 44 334 4.3 7.8 0.00 0.00 0.00 71 1004.9
20260510033221 44 311 4.3 6.1 0.00 0.00 0.00 71 1004.6
20260510032717 44 326 4.3 7.0 0.00 0.00 0.00 72 1004.8
20260510032213 44 309 3.5 4.3 0.00 0.00 0.00 73 1004.8
20260510031708 44 306 4.3 5.2 0.00 0.00 0.00 72 1004.7
20260510031204 44 298 3.5 4.3 0.00 0.00 0.00 71 1004.6
20260510030704 44 325 4.3 13.0 0.00 0.00 0.00 70 1004.7
20260510030202 45 342 5.2 7.0 0.00 0.00 0.00 71 1004.5
20260510025659 45 325 6.1 7.8 0.00 0.00 0.00 71 1004.3
20260510025156 45 329 3.5 6.1 0.00 0.00 0.00 72 1004.2
20260510024653 45 300 4.3 7.0 0.00 0.00 0.00 73 1004.4
20260510024149 45 326 5.2 7.8 0.00 0.00 0.00 72 1004.4
20260510023645 45 337 5.2 7.8 0.00 0.00 0.00 74 1004.3
20260510023143 45 268 3.5 6.1 0.00 0.00 0.00 75 1004.1
20260510022637 45 326 3.5 7.8 0.00 0.00 0.00 73 1004.1
20260510022133 45 330 5.2 7.0 0.00 0.00 0.00 73 1004.0
20260510021628 45 292 3.5 6.1 0.00 0.00 0.00 73 1003.9
20260510021126 45 335 5.2 7.8 0.00 0.00 0.00 72 1004.1
20260510020620 46 313 6.1 7.8 0.00 0.00 0.00 72 1003.7
20260510020115 46 335 4.3 11.3 0.00 0.00 0.00 71 1003.7
20260510015612 46 348 5.2 8.7 0.00 0.00 0.00 71 1003.6
20260510015108 46 320 4.3 11.3 0.00 0.00 0.00 71 1003.7
20260510014604 46 352 6.1 15.6 0.00 0.00 0.00 71 1003.3
20260510014102 46 0 12.2 14.8 0.00 0.00 0.00 70 1003.2
20260510013556 46 21 5.2 8.7 0.00 0.00 0.00 71 1003.1
20260510013052 47 322 6.1 13.9 0.00 0.00 0.00 70 1003.0
20260510012551 47 357 7.0 12.2 0.00 0.00 0.00 70 1002.9
20260510012048 47 4 7.8 13.0 0.00 0.00 0.00 69 1002.7
20260510011548 47 2 9.6 13.0 0.00 0.00 0.00 68 1002.7
20260510011044 48 328 5.2 7.8 0.00 0.00 0.00 68 1002.3
20260510010540 48 4 9.6 17.4 0.00 0.00 0.00 67 1002.3
20260510010038 48 24 7.8 9.6 0.00 0.00 0.00 66 1002.3
20260510005533 49 11 10.4 13.0 0.00 0.00 0.00 67 1001.9
20260510005031 49 5 5.2 14.8 0.00 0.00 0.00 65 1001.9
20260510004528 50 342 6.1 7.8 0.00 0.00 0.00 64 1001.6
20260510004027 50 356 10.4 14.8 0.00 0.00 0.00 61 1001.6
20260510003523 52 308 10.4 12.2 0.00 0.00 0.00 55 1001.4
20260510003018 52 293 7.0 13.9 0.00 0.00 0.00 50 1001.1
20260510002514 52 337 9.6 15.6 0.00 0.00 0.00 49 1001.0
20260510002011 53 315 11.3 19.1 0.00 0.00 0.00 49 1001.3
20260510001509 53 320 9.6 18.2 0.00 0.00 0.00 48 1000.9
20260510001007 53 348 13.9 15.6 0.00 0.00 0.00 48 1000.8
20260510000507 53 347 9.6 11.3 0.00 0.00 0.00 49 1000.8
20260510000004 54 321 8.7 18.2 0.00 0.00 0.00 47 1000.4
20260509235501 54 315 9.6 17.4 0.00 0.00 0.00 46 1000.3
20260509234957 54 317 8.7 13.9 0.00 0.00 0.00 46 1000.2
20260509234454 55 6 6.1 8.7 0.00 0.00 0.00 46 1000.2
20260509233952 55 312 11.3 20.0 0.00 0.00 0.00 45 999.9
20260509233449 55 297 9.6 19.1 0.00 0.00 0.00 44 999.9
20260509232945 55 334 13.0 19.1 0.00 0.00 0.00 44 999.7
20260509232443 55 331 13.0 14.8 0.00 0.00 0.00 45 999.5
20260509231938 55 341 13.9 17.4 0.00 0.00 0.00 45 999.3
20260509231435 56 347 8.7 13.0 0.00 0.00 0.00 46 999.3
20260509230934 56 286 7.8 14.8 0.00 0.00 0.00 46 999.1
20260509230430 56 282 9.6 17.4 0.00 0.00 0.00 46 999.2
20260509225926 57 323 11.3 13.0 0.00 0.00 0.00 45 999.0
20260509225423 56 328 9.6 13.0 0.00 0.00 0.00 46 999.0
20260509224919 56 313 11.3 14.8 0.00 0.00 0.00 45 998.8
20260509224414 55 321 9.6 14.8 0.00 0.00 0.00 47 998.8
20260509223912 56 357 6.1 20.0 0.00 0.00 0.00 46 998.6
20260509223408 56 317 5.2 9.6 0.00 0.00 0.00 48 998.4
20260509222905 56 312 9.6 14.8 0.00 0.00 0.00 45 998.4
20260509222401 56 333 9.6 13.9 0.00 0.00 0.00 46 998.2
20260509221856 56 324 6.1 8.7 0.00 0.00 0.00 49 998.2
20260509221354 56 294 7.0 17.4 0.00 0.00 0.00 49 998.2
20260509220849 56 294 7.8 13.9 0.00 0.00 0.00 48 998.1
20260509220345 56 306 13.0 20.9 0.00 0.00 0.00 48 998.0
20260509215841 56 281 4.3 7.8 0.00 0.00 0.00 47 997.8
20260509215337 57 307 13.0 21.7 0.00 0.00 0.00 46 997.9
20260509214835 58 302 12.2 20.9 0.00 0.00 0.00 44 997.9
20260509214332 57 334 12.2 15.6 0.00 0.00 0.00 43 997.7
20260509213829 57 316 11.3 17.4 0.00 0.00 0.00 43 997.4
20260509213324 57 264 8.7 15.6 0.00 0.00 0.00 44 997.3
20260509212822 59 313 13.0 20.9 0.00 0.00 0.00 42 997.3
20260509212320 58 346 13.0 15.6 0.00 0.00 0.00 43 997.1
20260509211815 58 296 10.4 19.1 0.00 0.00 0.00 43 996.9
20260509211311 58 304 7.8 12.2 0.00 0.00 0.00 42 996.7
20260509210808 59 269 13.0 26.1 0.00 0.00 0.00 43 996.6
20260509210306 59 296 11.3 13.9 0.00 0.00 0.00 41 996.6
20260509205805 59 353 7.8 15.6 0.00 0.00 0.00 42 996.6
20260509205300 60 302 9.6 18.2 0.00 0.00 0.00 41 996.4
20260509204756 60 313 12.2 20.9 0.00 0.00 0.00 41 996.1
20260509204252 59 280 12.2 13.9 0.00 0.00 0.00 43 995.9
20260509203749 60 313 12.2 21.7 0.00 0.00 0.00 43 996.0